| time (UTC) | temp F | wind direction | speed knots | gust knots | rain 1hr in | rain 24hr in | rain mn in | humidity % | barometer mb |
| 20260504081524 | 36 | 76 | 3.5 | 0.0 | 0.00 | 0.00 | 0.10 | 92 | 994.9 |
| 20260504050006 | 36 | 28 | 2.6 | 0.0 | 0.00 | 0.00 | 0.06 | 92 | 995.2 |
| 20260504044510 | 36 | 47 | 1.7 | 0.0 | 0.00 | 0.00 | 0.06 | 92 | 995.4 |
| 20260504043007 | 36 | 46 | 2.6 | 0.0 | 0.00 | 0.00 | 0.06 | 92 | 995.3 |
| 20260504041501 | 35 | 38 | 1.7 | 0.0 | 0.00 | 0.00 | 0.06 | 92 | 995.5 |
| 20260504040100 | 35 | 40 | 1.7 | 0.0 | 0.00 | 0.00 | 0.06 | 92 | 995.7 |
| 20260504034557 | 35 | 43 | 1.7 | 0.0 | 0.00 | 0.00 | 0.06 | 91 | 996.0 |
| 20260504033109 | 35 | 64 | 0.9 | 0.0 | 0.00 | 0.00 | 0.05 | 91 | 996.1 |
| 20260504031558 | 35 | 63 | 0.9 | 0.0 | 0.00 | 0.00 | 0.05 | 91 | 996.4 |
| 20260504030109 | 35 | 63 | 0.0 | 0.0 | 0.00 | 0.00 | 0.04 | 91 | 996.8 |
| 20260504024552 | 35 | 63 | 1.7 | 0.0 | 0.00 | 0.00 | 0.04 | 91 | 996.8 |
| 20260504023051 | 35 | 66 | 0.9 | 0.0 | 0.00 | 0.00 | 0.04 | 91 | 996.9 |
| 20260504021551 | 35 | 74 | 0.9 | 0.0 | 0.00 | 0.00 | 0.03 | 90 | 997.1 |
| 20260504020054 | 35 | 75 | 1.7 | 0.0 | 0.00 | 0.00 | 0.03 | 90 | 997.1 |
| 20260504014547 | 35 | 82 | 2.6 | 0.0 | 0.00 | 0.00 | 0.03 | 89 | 997.3 |
| 20260504013050 | 36 | 342 | 0.0 | 0.0 | 0.00 | 0.00 | 0.02 | 88 | 997.5 |
| 20260504011540 | 36 | 311 | 0.0 | 0.0 | 0.00 | 0.00 | 0.02 | 87 | 997.5 |
| 20260504010050 | 37 | 311 | 0.0 | 0.0 | 0.00 | 0.00 | 0.01 | 88 | 997.6 |
| 20260504004544 | 37 | 300 | 0.0 | 0.0 | 0.00 | 0.00 | 0.01 | 87 | 997.8 |
| 20260504003036 | 37 | 300 | 0.0 | 0.0 | 0.00 | 0.00 | 0.00 | 86 | 997.8 |
| 20260504001539 | 37 | 300 | 1.7 | 0.0 | 0.00 | 0.00 | 0.00 | 85 | 997.9 |
| 20260504000032 | 37 | 268 | 2.6 | 0.0 | 0.00 | 0.00 | 0.00 | 84 | 998.1 |
| 20260503234534 | 38 | 292 | 2.6 | 0.0 | 0.00 | 0.00 | 0.00 | 83 | 998.1 |
| 20260503233027 | 38 | 294 | 3.5 | 0.0 | 0.00 | 0.00 | 0.00 | 81 | 998.0 |
| 20260503231525 | 39 | 269 | 1.7 | 0.0 | 0.00 | 0.00 | 0.00 | 79 | 998.1 |
| 20260503230026 | 40 | 302 | 2.6 | 0.0 | 0.00 | 0.00 | 0.00 | 77 | 998.1 |
| 20260503224517 | 41 | 270 | 3.5 | 0.0 | 0.00 | 0.00 | 0.00 | 73 | 998.1 |
| 20260503223015 | 41 | 223 | 3.5 | 0.0 | 0.00 | 0.00 | 0.00 | 69 | 998.1 |
| 20260503221513 | 41 | 198 | 5.2 | 0.0 | 0.00 | 0.00 | 0.00 | 65 | 998.2 |
| 20260503220020 | 41 | 193 | 4.3 | 0.0 | 0.00 | 0.00 | 0.28 | 65 | 998.2 |
| 20260503214520 | 41 | 183 | 0.9 | 0.0 | 0.00 | 0.00 | 0.28 | 65 | 998.1 |
| 20260503213013 | 42 | 147 | 2.6 | 0.0 | 0.00 | 0.00 | 0.28 | 64 | 998.2 |
| 20260503211507 | 41 | 186 | 3.5 | 0.0 | 0.00 | 0.00 | 0.28 | 67 | 998.2 |
| 20260503210011 | 40 | 115 | 3.5 | 0.0 | 0.00 | 0.00 | 0.28 | 67 | 998.3 |
| 20260503204505 | 40 | 167 | 3.5 | 0.0 | 0.00 | 0.00 | 0.28 | 67 | 998.6 |
| 20260503203003 | 40 | 176 | 4.3 | 0.0 | 0.00 | 0.00 | 0.28 | 66 | 998.7 |
| 20260503201502 | 40 | 173 | 3.5 | 0.0 | 0.00 | 0.00 | 0.28 | 67 | 998.8 |
| 20260503200100 | 40 | 162 | 4.3 | 0.0 | 0.00 | 0.00 | 0.28 | 67 | 999.1 |
| 20260503194624 | 40 | 130 | 3.5 | 0.0 | 0.00 | 0.00 | 0.28 | 66 | 999.2 |
| 20260503193101 | 40 | 131 | 5.2 | 0.0 | 0.00 | 0.00 | 0.28 | 65 | 999.4 |
| 20260503191608 | 40 | 152 | 4.3 | 0.0 | 0.00 | 0.00 | 0.28 | 66 | 999.4 |
| 20260503190058 | 40 | 173 | 4.3 | 0.0 | 0.00 | 0.00 | 0.28 | 67 | 999.4 |
| 20260503184555 | 40 | 170 | 3.5 | 0.0 | 0.00 | 0.00 | 0.28 | 68 | 999.7 |
| 20260503183057 | 40 | 157 | 3.5 | 0.0 | 0.00 | 0.00 | 0.28 | 69 | 999.9 |
| 20260503181604 | 40 | 150 | 3.5 | 0.0 | 0.00 | 0.00 | 0.28 | 70 | 1000.0 |
| 20260503180052 | 40 | 143 | 3.5 | 0.0 | 0.00 | 0.00 | 0.28 | 72 | 1000.1 |
| 20260503174553 | 40 | 186 | 2.6 | 0.0 | 0.00 | 0.00 | 0.28 | 75 | 1000.2 |
| 20260503173045 | 40 | 78 | 6.1 | 0.0 | 0.00 | 0.00 | 0.28 | 76 | 1000.3 |
| 20260503171543 | 40 | 102 | 5.2 | 0.0 | 0.00 | 0.00 | 0.28 | 76 | 1000.7 |